[[{"header":{"parameterUnit":"m.s-1","parameterCategory":1,"la1":30.2991,"la2":30.254,"lo1":-89.0895,"lo2":-89.0444,"dy":0.0017,"dx":0.0017,"nx":28,"ny":28,"refTime":"2025-08-31T21:00:00:Z","depth":0,"parameterNumber":2,"parameterNumberName":"U-component_of_WINDS"},"data":[0,0,0,0,0,0,0,0,0,0,0,0,0,0,0,0,0,0,0,0,0,0,0,0,0,0,0,0,0,0,0,0,0,0,0,0,0,0,0,0,0,0,0,0,0,0,0,0,0,0,0,0,0,0,0,0,0,0,-3.5474,-3.5474,0,-3.5482,-3.5482,-3.5482,-3.5377,-3.5374,-3.5371,-3.5368,-3.5375,-3.5378,-3.5381,0,0,0,0,0,0,0,0,0,0,0,0,0,-3.5367,-3.537,-3.5474,-3.5474,-3.5474,-3.5482,-3.5482,-3.5482,-3.5377,-3.5374,-3.537,-3.5367,-3.5374,-3.5378,-3.5381,0,0,0,0,0,0,0,0,0,0,0,0,0,-3.5398,-3.5371,-3.5474,-3.5423,-3.5418,-3.5482,-3.5482,-3.5482,-3.5378,-3.5373,-3.5369,-3.5365,-3.5373,-3.5377,-3.5382,-3.5495,0,0,-3.5395,-3.5397,0,0,0,0,0,0,0,0,-3.5397,-3.5402,-3.543,-3.5427,-3.5422,-3.5424,-3.5447,-3.5486,-3.5379,-3.5393,-3.5368,-3.5363,-3.5395,-3.5397,-3.5408,-3.5495,-3.5495,-3.5395,-3.5398,-3.54,-3.5401,0,0,0,0,0,0,0,-3.5395,-3.5401,-3.5477,-3.5431,-3.5426,-3.5399,-3.5399,-3.5454,-3.5418,-3.5392,-3.5384,-3.5386,-3.5392,-3.5404,-3.5407,-3.5495,-3.5395,-3.5399,-3.5402,-3.5403,-3.5677,-3.5681,0,0,0,0,0,0,-3.54,-3.54,-3.5477,-3.5477,-3.5398,-3.5405,-3.5404,-3.5428,-3.5417,-3.5412,-3.539,-3.5381,-3.5399,-3.5403,-3.5407,-3.554,-3.54,-3.5404,-3.5406,-3.5672,-3.5678,-3.5683,0,0,0,0,0,0,-3.5398,-3.5408,-3.5477,-3.5437,-3.5444,-3.5411,-3.5438,-3.543,-3.5442,-3.5416,-3.5409,-3.541,-3.5396,-3.5401,-3.5474,-3.5539,-3.5406,-3.541,-3.5667,-3.5674,-3.568,-3.5806,0,0,0,0,0,0,-3.5395,-3.5407,-3.545,-3.5439,-3.5446,-3.5544,-3.5442,-3.5433,-3.545,-3.5439,-3.5433,-3.5427,-3.5393,-3.5468,-3.5478,-3.5542,-3.5413,-3.5661,-3.567,-3.5678,-3.5796,-3.5817,-3.5834,0,0,0,0,0,-3.5392,-3.5485,-3.5453,-3.5463,-3.5499,-3.5548,-3.5552,-3.5511,-3.5456,-3.5499,-3.5482,-3.5427,-3.553,-3.5477,-3.5487,-3.5553,-3.5656,-3.5667,-3.5677,-3.5788,-3.5813,-3.5834,0,0,0,0,0,0,-3.5504,-3.5482,-3.5447,-3.5539,-3.5546,-3.553,-3.5582,-3.5538,-3.5561,-3.555,-3.5497,-3.5496,-3.5578,-3.5572,-3.5514,-3.5663,-3.5584,-3.5597,-3.5664,-3.5687,-3.5706,-3.5706,-3.5417,0,0,0,0,0,-3.554,-3.5582,-3.556,-3.5644,-3.5649,-3.5616,-3.5635,-3.5603,-3.5608,-3.561,-3.5599,-3.5606,-3.5639,-3.5663,-3.5692,-3.5794,-3.5792,-3.5845,-3.5864,-3.588,-3.5892,-3.5947,-3.5971,-3.5717,-3.5717,-3.5717,0,0,-3.5614,-3.5607,-3.5637,-3.5666,-3.5668,-3.5712,-3.5619,-3.5669,-3.5702,-3.5618,-3.5686,-3.5678,-3.5682,-3.5771,-3.581,-3.5769,-3.5962,-3.5893,-3.5906,-3.591,-3.5961,-3.5985,-3.6006,-3.5725,-3.5723,-3.5722,0,0,-3.5772,-3.577,-3.584,-3.5844,-3.5848,-3.5826,-3.5843,-3.5833,-3.5825,-3.5893,-3.5831,-3.5869,-3.5928,-3.5934,-3.5945,-3.6106,-3.6057,-3.6117,-3.6217,-3.6271,-3.6291,-3.6308,-3.6367,-3.6389,-3.6129,-3.6129,-3.6129,0,-3.5863,-3.5928,-3.5882,-3.5937,-3.5953,-3.5879,-3.595,-3.5955,-3.5969,-3.5981,-3.5936,-3.6009,-3.6006,-3.6096,-3.6136,-3.6146,-3.6165,-3.6118,-3.6292,-3.6309,-3.6324,-3.638,-3.6402,-3.6136,-3.6136,-3.6135,-3.6134,0,-3.6041,-3.6087,-3.6143,-3.6159,-3.618,-3.6243,-3.6206,-3.6233,-3.6199,-3.6181,-3.6252,-3.6247,-3.6274,-3.6293,-3.626,-3.6378,-3.6353,-3.6301,-3.622,-3.6357,-3.6408,-3.6429,-3.6147,-3.6144,-3.6142,-3.614,0,0,-3.627,-3.626,-3.6282,-3.6288,-3.6288,-3.6322,-3.6382,-3.641,-3.6434,-3.6446,-3.6495,-3.6547,-3.6499,-3.6512,-3.6478,-3.6526,-3.6656,-3.6467,-3.6466,-3.6504,-3.6788,-3.6828,-3.6854,-3.6623,-3.6627,-3.663,-3.6788,0,-3.6425,-3.6526,-3.6487,-3.6592,-3.6635,-3.6565,-3.6617,-3.6623,-3.6608,-3.6642,-3.6624,-3.6663,-3.6595,-3.6603,-3.6646,-3.6631,-3.6712,-3.6618,-3.6669,-3.6671,-3.6671,-3.688,-3.6923,-3.7072,-3.6807,-3.6811,-3.6813,0,-3.6619,-3.664,-3.6749,-3.6742,-3.6758,-3.6806,-3.6829,-3.6862,-3.6866,-3.6852,-3.6867,-3.6823,-3.6882,-3.6801,-3.6881,-3.6818,-3.6836,-3.6832,-3.6837,-3.6841,-3.6751,-3.6891,-3.7118,-3.7142,-3.6844,-3.6841,-3.6839,0,-3.6777,-3.6832,-3.6905,-3.6913,-3.6906,-3.6941,-3.694,-3.694,-3.696,-3.698,-3.6992,-3.7018,-3.7033,-3.7054,-3.7019,-3.6963,-3.7105,-3.7021,-3.7095,-3.7097,-3.7129,-3.7128,-3.7364,-3.7139,-3.7139,-3.7138,-3.7138,0,-3.6954,-3.7025,-3.6976,-3.7021,-3.7098,-3.7052,-3.7129,-3.712,-3.7121,-3.7163,-3.7105,-3.7145,-3.7096,-3.7133,-3.7105,-3.7177,-3.7183,-3.7174,-3.7166,-3.718,-3.7182,-3.7192,-3.7181,-3.7144,-3.7143,-3.7142,-3.7141,0,-3.7144,-3.7115,-3.719,-3.7178,-3.7176,-3.7234,-3.7223,-3.7264,-3.7245,-3.7299,-3.7309,-3.728,-3.732,-3.7287,-3.7325,-3.7307,-3.7402,-3.7378,-3.7401,-3.7395,-3.7472,-3.7466,-3.7724,-3.7756,-3.751,-3.7512,-3.7514,0,-3.726,-3.7313,-3.7307,-3.7331,-3.7334,-3.7373,-3.7393,-3.735,-3.7373,-3.7383,-3.7424,-3.7458,-3.7484,-3.7551,-3.7533,-3.7562,-3.754,-3.7629,-3.7544,-3.7557,-3.7543,-3.7541,-3.7547,-3.7646,-3.7649,-3.7652,-3.7653,0,-3.747,-3.7453,-3.7484,-3.751,-3.7536,-3.7554,-3.7568,-3.7592,-3.7547,-3.7576,-3.7616,-3.7637,-3.7676,-3.7712,-3.7736,-3.7734,-3.7688,-3.768,-3.7699,-3.7715,-3.7726,-3.7722,-3.7449,-3.7675,-3.7672,-3.7671,-3.767,-3.7669,-3.7627,-3.7671,-3.7674,-3.7711,-3.7717,-3.7731,-3.777,-3.7756,-3.7789,-3.7818,-3.779,-3.784,-3.7843,-3.787,-3.7875,-3.7913,-3.7876,-3.7903,-3.791,-3.7918,-3.793,-3.7719,-3.7917,-3.7916,-3.7915,-3.7915,-3.7914,0,-3.7835,-3.7833,-3.7867,-3.7889,-3.7919,-3.7872,-3.7885,-3.7912,-3.7957,-3.7964,-3.7991,-3.8038,-3.8073,-3.8058,-3.8088,-3.8121,-3.8101,-3.8131,-3.8129,-3.8129,-3.796,-3.7942,-3.8147,-3.8147,-3.8147,-3.8147,-3.8147,-3.8147,-3.7946,-3.8019,-3.8002,-3.8077,-3.8074,-3.8122,-3.8134,-3.8148,-3.8154,-3.8209,-3.8238,-3.8228,-3.8227,-3.8256,-3.8286,-3.8281,-3.8296,-3.8334,-3.8321,-3.8164,-3.8141,-3.8119,-3.8101,-3.8337,-3.8338,-3.8487,-3.8489,-3.849]},{"header":{"parameterUnit":"m.s-1","parameterCategory":1,"la1":30.2991,"la2":30.254,"lo1":-89.0895,"lo2":-89.0444,"dy":0.0017,"dx":0.0017,"nx":28,"ny":28,"refTime":"2025-08-31T21:00:00:Z","depth":0,"parameterNumber":3,"parameterNumberName":"V-component_of_WINDS"},"data":[0,0,0,0,0,0,0,0,0,0,0,0,0,0,0,0,0,0,0,0,0,0,0,0,0,0,0,0,0,0,0,0,0,0,0,0,0,0,0,0,0,0,0,0,0,0,0,0,0,0,0,0,0,0,0,0,0,0,-1.6182,-1.6182,0,-1.6196,-1.6196,-1.6196,-1.6184,-1.6184,-1.6183,-1.6183,-1.6198,-1.6199,-1.62,0,0,0,0,0,0,0,0,0,0,0,0,0,-1.6143,-1.6144,-1.6182,-1.6182,-1.6182,-1.6196,-1.6196,-1.6196,-1.6184,-1.6184,-1.6183,-1.6183,-1.6198,-1.6199,-1.62,0,0,0,0,0,0,0,0,0,0,0,0,0,-1.6159,-1.6144,-1.6182,-1.6178,-1.6178,-1.6196,-1.6196,-1.6196,-1.6184,-1.6184,-1.6183,-1.6182,-1.6197,-1.6198,-1.62,-1.6223,0,0,-1.6204,-1.6204,0,0,0,0,0,0,0,0,-1.6158,-1.616,-1.6178,-1.6178,-1.6178,-1.6188,-1.6188,-1.6205,-1.6185,-1.6182,-1.6183,-1.6182,-1.6195,-1.6197,-1.6201,-1.6224,-1.6224,-1.6204,-1.6205,-1.6205,-1.6206,0,0,0,0,0,0,0,-1.6157,-1.616,-1.6187,-1.6178,-1.6178,-1.6175,-1.6176,-1.6191,-1.6193,-1.6182,-1.6181,-1.6183,-1.6195,-1.62,-1.6201,-1.6225,-1.6204,-1.6205,-1.6206,-1.6206,-1.6265,-1.6266,0,0,0,0,0,0,-1.6156,-1.6159,-1.6187,-1.6188,-1.6166,-1.6176,-1.6178,-1.6185,-1.6192,-1.6193,-1.6184,-1.6182,-1.6198,-1.62,-1.6202,-1.6228,-1.6205,-1.6206,-1.6207,-1.6264,-1.6265,-1.6266,0,0,0,0,0,0,-1.6155,-1.6159,-1.6186,-1.6173,-1.6176,-1.6178,-1.6186,-1.6186,-1.6191,-1.6194,-1.6194,-1.6188,-1.6197,-1.62,-1.6217,-1.6228,-1.6207,-1.6208,-1.6263,-1.6265,-1.6266,-1.6282,0,0,0,0,0,0,-1.6154,-1.6159,-1.6168,-1.6173,-1.6177,-1.6202,-1.6187,-1.6187,-1.6193,-1.6191,-1.6198,-1.6198,-1.6197,-1.6215,-1.6219,-1.623,-1.6209,-1.6262,-1.6264,-1.6265,-1.628,-1.6283,-1.6286,0,0,0,0,0,-1.6153,-1.6172,-1.6169,-1.6172,-1.6189,-1.6203,-1.6205,-1.6203,-1.6194,-1.6203,-1.6204,-1.6198,-1.6227,-1.6217,-1.6221,-1.6233,-1.6262,-1.6264,-1.6265,-1.6279,-1.6283,-1.6286,0,0,0,0,0,0,-1.6169,-1.6173,-1.6169,-1.6191,-1.6196,-1.6201,-1.6212,-1.6207,-1.6216,-1.6214,-1.6211,-1.6212,-1.623,-1.6233,-1.6223,-1.6254,-1.6243,-1.6245,-1.6252,-1.6256,-1.6258,-1.6257,-1.621,0,0,0,0,0,-1.6175,-1.6186,-1.6189,-1.6208,-1.6211,-1.6211,-1.6217,-1.6215,-1.6221,-1.6223,-1.6226,-1.6232,-1.6242,-1.6249,-1.6259,-1.628,-1.6281,-1.629,-1.6293,-1.6295,-1.6297,-1.6307,-1.6311,-1.6272,-1.6272,-1.6272,0,0,-1.6188,-1.6191,-1.6199,-1.6211,-1.6216,-1.6227,-1.6213,-1.6226,-1.6234,-1.6225,-1.6242,-1.6244,-1.625,-1.6269,-1.6278,-1.6272,-1.6308,-1.6298,-1.6299,-1.63,-1.631,-1.6313,-1.6317,-1.6273,-1.6273,-1.6273,0,0,-1.6216,-1.6221,-1.6236,-1.624,-1.6246,-1.6246,-1.6249,-1.6254,-1.6255,-1.6271,-1.6264,-1.6273,-1.6291,-1.6296,-1.63,-1.6328,-1.6322,-1.6331,-1.6346,-1.6356,-1.6359,-1.6362,-1.637,-1.6374,-1.6333,-1.6333,-1.6333,0,-1.6231,-1.6248,-1.6244,-1.6257,-1.6262,-1.6254,-1.6269,-1.6273,-1.6282,-1.6286,-1.6279,-1.63,-1.6304,-1.6323,-1.633,-1.6334,-1.6337,-1.633,-1.6359,-1.6361,-1.6364,-1.6372,-1.6376,-1.6334,-1.6334,-1.6334,-1.6334,0,-1.6265,-1.6277,-1.6288,-1.6296,-1.6303,-1.6317,-1.6315,-1.6322,-1.6318,-1.6318,-1.6334,-1.6338,-1.6347,-1.6352,-1.6349,-1.637,-1.6366,-1.6359,-1.6347,-1.6369,-1.6376,-1.638,-1.6336,-1.6335,-1.6335,-1.6335,0,0,-1.6305,-1.631,-1.6314,-1.6317,-1.6322,-1.6331,-1.6344,-1.6352,-1.6357,-1.6364,-1.6374,-1.6388,-1.6381,-1.6386,-1.6384,-1.6392,-1.6412,-1.6384,-1.6384,-1.6388,-1.6434,-1.6439,-1.6443,-1.6408,-1.6409,-1.641,-1.6433,0,-1.6333,-1.6355,-1.6351,-1.6373,-1.6382,-1.6373,-1.6384,-1.6389,-1.6388,-1.6396,-1.6396,-1.6406,-1.6397,-1.64,-1.6408,-1.6408,-1.6421,-1.6406,-1.6417,-1.6417,-1.6415,-1.6447,-1.6452,-1.6475,-1.6436,-1.6437,-1.6437,0,-1.6369,-1.6375,-1.6397,-1.6399,-1.6403,-1.6413,-1.6419,-1.6427,-1.6431,-1.643,-1.6435,-1.643,-1.6442,-1.643,-1.6446,-1.6436,-1.644,-1.6441,-1.6441,-1.6442,-1.6428,-1.6448,-1.6482,-1.6485,-1.6442,-1.6442,-1.6442,0,-1.6394,-1.6408,-1.6423,-1.6425,-1.6428,-1.6435,-1.6437,-1.644,-1.6445,-1.645,-1.6453,-1.6461,-1.6465,-1.647,-1.6467,-1.6459,-1.6483,-1.6471,-1.6482,-1.6482,-1.6487,-1.6487,-1.6522,-1.6491,-1.6491,-1.6491,-1.6491,0,-1.6425,-1.6439,-1.6434,-1.6443,-1.6457,-1.6452,-1.6467,-1.6467,-1.6469,-1.6478,-1.6471,-1.6479,-1.6474,-1.6482,-1.648,-1.6492,-1.6494,-1.6493,-1.6492,-1.6494,-1.6494,-1.6496,-1.6494,-1.6492,-1.6491,-1.6491,-1.6491,0,-1.6456,-1.6454,-1.6468,-1.6469,-1.647,-1.648,-1.6481,-1.6489,-1.6487,-1.6498,-1.65,-1.6498,-1.6506,-1.6504,-1.6513,-1.6511,-1.6527,-1.6524,-1.6525,-1.6524,-1.6535,-1.6534,-1.6573,-1.6577,-1.6544,-1.6544,-1.6544,0,-1.6476,-1.6486,-1.6487,-1.6492,-1.6494,-1.6502,-1.6506,-1.6501,-1.6506,-1.651,-1.6517,-1.6525,-1.653,-1.6544,-1.6543,-1.6549,-1.6546,-1.6559,-1.6547,-1.6548,-1.6545,-1.6544,-1.6545,-1.6562,-1.6562,-1.6563,-1.6563,0,-1.6511,-1.6508,-1.6515,-1.652,-1.6526,-1.653,-1.6534,-1.6538,-1.6533,-1.6539,-1.6547,-1.6551,-1.6559,-1.6566,-1.6572,-1.6573,-1.6567,-1.6566,-1.6569,-1.657,-1.657,-1.6569,-1.6531,-1.6566,-1.6565,-1.6565,-1.6565,-1.6565,-1.6536,-1.6544,-1.6545,-1.6552,-1.6554,-1.6557,-1.6564,-1.6563,-1.657,-1.6576,-1.6572,-1.6581,-1.6583,-1.659,-1.6591,-1.6598,-1.6593,-1.6597,-1.6598,-1.6599,-1.66,-1.6569,-1.6599,-1.6599,-1.6599,-1.6599,-1.6599,0,-1.6569,-1.657,-1.6576,-1.6581,-1.6586,-1.6579,-1.6582,-1.6587,-1.6594,-1.6597,-1.6602,-1.661,-1.6616,-1.6616,-1.6621,-1.6626,-1.6623,-1.6628,-1.6627,-1.6627,-1.6604,-1.6601,-1.663,-1.663,-1.663,-1.663,-1.663,-1.663,-1.6587,-1.6599,-1.6597,-1.661,-1.661,-1.6618,-1.662,-1.6622,-1.6624,-1.6633,-1.6638,-1.6637,-1.6638,-1.6643,-1.6648,-1.6648,-1.665,-1.6655,-1.6653,-1.6632,-1.6629,-1.6626,-1.6623,-1.6656,-1.6656,-1.6675,-1.6676,-1.6676]}]]